Regional Weather Roundup
Issued by NWS

Home | Current Version | Previous Version | Text Only | Print | Product List | Glossary Off
Versions: 1 2 3 4 5 6 7 8 9 10 11 12 13 14 15 16 17 18 19 20 21 22 23 24 25 26 27 28 29 30 31 32 33 34 35 36 37 38 39 40 41 42 43 44 45 46 47 48 49 50

000
ASUS43 KFSD 230402
RWRSD

WEATHER ROUNDUP FOR SOUTH DAKOTA
NATIONAL WEATHER SERVICE SIOUX FALLS SD
1100 PM CDT SAT APR 22 2017

NOTE: "FAIR" INDICATES FEW OR NO CLOUDS BELOW 12,000 FEET WITH NO
SIGNIFICANT WEATHER AND/OR OBSTRUCTIONS TO VISIBILITY.


SDZ001>005-009-010-012>017-230500-
NORTHWEST AND NORTH CENTRAL SOUTH DAKOTA

CITY           SKY/WX    TMP DP  RH WIND       PRES   REMARKS
BUFFALO          N/A     54  40  59 E6        29.96F
FAITH            N/A     53  37  54 SE12      30.03S
MOBRIDGE       PTCLDY    53  36  52 SE3       30.02S
$$

SDZ012>016-024>037-041>051-057-063-072>074-230500-
SOUTHWEST AND SOUTH CENTRAL SOUTH DAKOTA

CITY           SKY/WX    TMP DP  RH WIND       PRES   REMARKS
RAPID CTY ARPT CLEAR     46  33  60 S8        30.04S
PIERRE         CLEAR     50  35  56 SE5       30.05F
CUSTER         CLEAR     45  26  47 SW7       30.11R
ELLSWORTH AFB  CLEAR     50  33  52 S5        30.04R HAZE
PHILIP         CLEAR     51  35  54 S12       30.05R
PINE RIDGE     CLEAR     46  33  60 S8        30.10R
SPEARFISH      FAIR      43  34  70 S8        30.05F
WINNER         FAIR      55  32  41 S15       30.11F
$$

SDZ004>011-016>023-039-040-230500-
NORTHEAST SOUTH DAKOTA

CITY           SKY/WX    TMP DP  RH WIND       PRES   REMARKS
ABERDEEN       CLEAR     50  35  56 SW9       30.06S
WATERTOWN      CLEAR     48  40  73 SW10      30.10S
BROOKINGS      CLEAR     50  37  61 S7        30.14R
SISSETON         N/A     50  43  77 N18G28    30.08R
$$

SDZ017-020-022-023-036>040-048>070-230500-
SOUTHEAST SOUTH DAKOTA

CITY           SKY/WX    TMP DP  RH WIND       PRES   REMARKS
SIOUX FALLS    CLEAR     54  38  54 SW5       30.15S
HURON          CLEAR     54  37  52 S9        30.11S
CHAMBERLAIN    CLEAR     49  38  66 SE10      30.10F
MITCHELL       CLEAR     56  37  49 S9        30.14S
YANKTON        CLEAR     54  36  50 SW5       30.17R
$$

ABBREVIATIONS USED IN REMARKS
   TC - TEMPERATURE IN CELSIUS
  WCI - WIND CHILL INDEX
   HX - HEAT INDEX
  VSB - VISIBILITY




USA.gov is the U.S. government's official web portal to all federal, state and local government web resources and services.